Chicago Midway, IL

4:14 AM CST on December 14, 2019 (GMT -0600)
Chicago-Midway

Weather History for KMDW - October, 2019

Change the Weather History Date:

Tuesday, October 8, 2019

  Actual Average Record
Temperature  
Mean Temperature 60 °F 57 °F  
Max Temperature 71 °F 66 °F 88 °F (2007)
Min Temperature 48 °F 48 °F 30 °F (1952)
Degree Days  
Heating Degree Days 5 9  
Month to date heating degree days 38 61  
Since 1 July heating degree days 39 143  
Cooling Degree Days 0 1  
Month to date cooling degree days 21 8  
Year to date cooling degree days 1131 1037  
Growing Degree Days 10 (Base 50)    
Moisture  
Dew Point 44 °F    
Average Humidity 57    
Maximum Humidity 83    
Minimum Humidity 21    
Precipitation  
Precipitation 0.00 in 0.09 in 1.32 in (1990)
Month to date precipitation 0.87 0.79  
Year to date precipitation 38.69 30.65  
Sea Level Pressure  
Sea Level Pressure 30.18 in    
Wind  
Wind Speed 5 mph (SSE)    
Max Wind Speed 12 mph    
Max Gust Speed 20 mph    
Visibility 10 miles    
Events      
T = Trace of Precipitation, MM = Missing Value Source: NWS Daily Summary

Daily Weather History Graph

Daily Weather History Graph

Search for Another Location

Airport or City:

Astronomy

Oct. 08, 2019 Rise Set
Actual Time 6:55 AM CDT 6:21 PM CDT
Civil Twilight 6:27 AM CDT 6:49 PM CDT
Nautical Twilight 5:55 AM CDT 7:21 PM CDT
Astronomical Twilight 5:22 AM CDT 7:53 PM CDT
Moon 4:25 PM CDT (10/8) 1:38 AM CDT (10/8)
Length of Visible Light 12h 21m
Length of Day
11h 26m
Waxing Gibbous, 78% of the Moon is Illuminated
Oct 8
Waxing Gibbous
Oct 13
Full
Oct 21
Last Quarter
Oct 27
New
Nov 4
First Quarter

Hourly Weather History & Observations

Time (CDT) Temp. Dew Point Humidity Pressure Visibility Wind Dir Wind Speed Gust Speed Precip Events Conditions
12:53 AM 53.1 °F 45.0 °F 74% 30.20 in 10.0 mi Calm Calm - N/A   Clear
1:53 AM 52.0 °F 45.0 °F 77% 30.20 in 10.0 mi Calm Calm - N/A   Partly Cloudy
2:53 AM 50.0 °F 44.1 °F 80% 30.20 in 10.0 mi Calm Calm - N/A   Partly Cloudy
3:53 AM 51.1 °F 45.0 °F 80% 30.20 in 10.0 mi Calm Calm - N/A   Clear
4:53 AM 50.0 °F 45.0 °F 83% 30.22 in 10.0 mi Calm Calm - N/A   Clear
5:53 AM 51.1 °F 45.0 °F 80% 30.23 in 10.0 mi Variable 3.5 mph - N/A   Clear
6:53 AM 51.1 °F 43.0 °F 74% 30.23 in 10.0 mi SSE 3.5 mph - N/A   Clear
7:53 AM 52.0 °F 43.0 °F 71% 30.24 in 10.0 mi South 4.6 mph - N/A   Clear
8:53 AM 55.9 °F 43.0 °F 62% 30.24 in 10.0 mi SSE 4.6 mph - N/A   Clear
9:53 AM 61.0 °F 44.1 °F 54% 30.24 in 10.0 mi SSW 4.6 mph - N/A   Clear
10:53 AM 64.9 °F 43.0 °F 45% 30.24 in 10.0 mi South 5.8 mph - N/A   Clear
11:53 AM 68.0 °F 43.0 °F 40% 30.22 in 10.0 mi South 6.9 mph - N/A   Partly Cloudy
12:53 PM 69.1 °F 42.1 °F 38% 30.19 in 10.0 mi Variable 6.9 mph - N/A   Partly Cloudy
1:53 PM 70.0 °F 41.0 °F 35% 30.17 in 10.0 mi West 6.9 mph - N/A   Partly Cloudy
2:53 PM 70.0 °F 41.0 °F 35% 30.17 in 10.0 mi SSW 6.9 mph - N/A   Partly Cloudy
3:53 PM 71.1 °F 39.9 °F 32% 30.14 in 10.0 mi SW 3.5 mph - N/A   Partly Cloudy
4:53 PM 70.0 °F 41.0 °F 35% 30.14 in 10.0 mi SSE 6.9 mph - N/A   Partly Cloudy
5:53 PM 69.1 °F 41.0 °F 36% 30.14 in 10.0 mi South 4.6 mph - N/A   Partly Cloudy
6:53 PM 64.0 °F 44.1 °F 48% 30.14 in 10.0 mi ESE 9.2 mph - N/A   Clear
7:53 PM 62.1 °F 48.0 °F 60% 30.14 in 10.0 mi ESE 8.1 mph - N/A   Clear
8:53 PM 61.0 °F 48.0 °F 62% 30.14 in 10.0 mi ESE 9.2 mph - N/A   Clear
9:53 PM 61.0 °F 51.1 °F 70% 30.14 in 10.0 mi ESE 8.1 mph - N/A   Clear
10:53 PM 59.0 °F 51.1 °F 75% 30.14 in 10.0 mi ESE 5.8 mph - N/A   Clear
11:53 PM 59.0 °F 45.0 °F 60% 30.13 in 10.0 mi SSE 6.9 mph - N/A   Clear